Weather reports worldwide

Advertisment
St-Girons, France (7627): temperature & dewpoint: 13.03.2019 09:00:00 - 19.03.2019 09:00:00 (CET)St-Girons, France (7627): temperature 5cm: 13.03.2019 09:00:00 - 19.03.2019 09:00:00 (CET)St-Girons, France (7627): temperature -20cm & temperature -100cm: 13.03.2019 09:00:00 - 19.03.2019 09:00:00 (CET)St-Girons, France (7627): wind speed & gusts: 13.03.2019 09:00:00 - 19.03.2019 09:00:00 (CET)St-Girons, France (7627): wind direction: 13.03.2019 09:00:00 - 19.03.2019 09:00:00 (CET)St-Girons, France (7627): reduced air pressure: 13.03.2019 09:00:00 - 19.03.2019 09:00:00 (CET)St-Girons, France (7627): visibility: 13.03.2019 09:00:00 - 19.03.2019 09:00:00 (CET)St-Girons, France (7627): sunshine duration: 13.03.2019 09:00:00 - 19.03.2019 09:00:00 (CET)St-Girons, France (7627): precipitation: 13.03.2019 09:00:00 - 19.03.2019 09:00:00 (CET)
Date & Time tt [°C] td [°C] tt 5cm [°C] tt -20cm [°C] tt -100cm [°C] ff [km/h] ff [kn] fx [km/h] fx [kn] dd ppp [hPa] vv [km] sd [min] rr [mm]
19.03.2019 09:00:00 3,9 2,3 3,3 9,9 10,1 3 1 15 8 ENE 1028,6 20 0 0,0
19.03.2019 08:00:00 3,5 1,9 3,1 10,0 10,1 8 4 19 10 WNW 1028,2 20 0 0,0
19.03.2019 07:00:00 3,4 2,2 3,1 10,0 10,1 9 5 26 14 WNW 1027,5 12 0 0,6
19.03.2019 06:00:00 3,7 2,7 3,4 10,0 10,1 10 5 21 12 NNW 1027,3 15 0 0,4
19.03.2019 05:00:00 3,7 2,5 3,3 10,0 10,1 8 4 22 12 NNW 1027,2 19 0 0,4
19.03.2019 04:00:00 3,8 2,5 3,4 10,1 10,1 11 6 25 14 NNW 1026,9 15 0 0,6
19.03.2019 03:00:00 4,9 2,1 3,9 10,1 10,1 17 9 26 14 NW 1027,3 11 0 0,4
19.03.2019 02:00:00 5,1 2,8 3,4 10,1 10,1 2 1 10 5 E 1027,3 20 0 0,0
19.03.2019 01:00:00 5,7 2,5 4,2 10,2 10,1 9 5 19 10 WNW 1027,4 20 0 0,0
19.03.2019 00:00:00 5,9 3,2 4,8 10,2 10,1 11 6 23 12 WNW 1028,2 20 0 0,0
18.03.2019 23:00:00 5,7 3,2 4,8 10,2 10,1 12 6 30 16 W 1028,5 20 0 0,8
18.03.2019 22:00:00 5,6 3,8 5,0 10,2 10,1 7 4 38 20 WNW 1028,6 13 0 1,0
18.03.2019 21:00:00 7,9 1,9 5,4 10,1 10,1 24 13 36 19 NW 1027,5 20 0 0,0
18.03.2019 20:00:00 7,5 -1,2 3,4 10,1 10,1 7 4 10 5 W 1026,9 20 0 0,0
18.03.2019 19:00:00 9,0 -1,7 6,0 10,0 10,1 8 4 29 16 W 1026,5 20 40 0,0
18.03.2019 18:00:00 10,2 -2,2 9,8 9,9 10,1 13 7 29 16 W 1026,1 20 36 0,0
18.03.2019 17:00:00 11,7 -1,5 11,9 9,8 10,0 16 9 33 18 NW 1025,7 20 50 0,0
18.03.2019 16:00:00 11,8 -2,4 11,5 9,8 10,1 14 8 36 19 NW 1025,8 20 43 0,0
18.03.2019 15:00:00 11,8 -1,0 11,7 9,7 10,1 18 10 33 18 NW 1026,1 20 49 0,0
18.03.2019 14:00:00 11,5 0,0 16,9 9,7 10,0 16 9 37 20 WNW 1026,6 20 58 0,0
18.03.2019 13:00:00 10,8 -1,3 12,8 9,6 10,1 19 10 38 20 NW 1027,5 20 52 0,0
18.03.2019 12:00:00 9,2 -1,0 12,4 9,7 10,1 24 13 39 21 NW 1028,1 20 54 0,0
18.03.2019 11:00:00 9,3 1,0 8,4 9,7 10,1 21 11 33 18 WNW 1028,0 20 33 0,0
18.03.2019 10:00:00 8,0 0,9 9,1 9,7 10,0 18 10 29 16 WNW 1027,9 20 49 0,0
18.03.2019 09:00:00 6,8 1,5 5,1 9,8 10,1 6 3 14 8 WNW 1027,8 20 11 0,0
18.03.2019 08:00:00 4,9 0,1 2,4 9,9 10,1 0 0 14 8 N 1027,7 20 0 0,0
18.03.2019 07:00:00 5,0 0,0 3,6 9,9 10,1 7 4 16 9 NW 1027,3 20 0 0,0
18.03.2019 06:00:00 4,5 0,3 3,4 10,0 10,1 3 2 10 5 NW 1026,9 20 0 0,0
18.03.2019 05:00:00 4,4 0,7 3,1 10,0 10,1 2 1 8 4 E 1026,3 20 0 0,0
18.03.2019 04:00:00 4,6 -0,4 2,7 10,0 10,0 2 1 7 4 SE 1026,0 20 0 0,0
18.03.2019 03:00:00 5,0 -1,3 2,3 10,1 10,0 4 2 14 8 NW 1026,2 20 0 0,0
18.03.2019 02:00:00 5,3 0,1 2,3 10,2 10,0 9 5 19 10 W 1026,6 20 0 0,0
18.03.2019 01:00:00 5,2 0,0 2,4 10,2 10,0 4 2 26 14 W 1026,9 20 0 0,0
18.03.2019 00:00:00 5,5 0,3 3,1 10,3 10,0 14 7 24 13 WNW 1026,8 20 0 0,0
17.03.2019 23:00:00 5,6 0,9 3,3 10,3 10,0 13 7 27 15 WNW 1026,7 20 0 0,0
17.03.2019 22:00:00 6,4 2,1 4,3 10,3 10,0 14 8 34 18 WNW 1025,9 20 0 0,0
17.03.2019 21:00:00 7,2 2,1 5,4 10,3 10,0 17 9 35 19 WNW 1025,3 20 0 0,0
17.03.2019 20:00:00 7,5 2,6 5,4 10,3 10,0 17 9 35 19 W 1024,2 20 0 0,0
17.03.2019 19:00:00 7,0 3,1 5,5 10,3 10,0 19 10 56 30 W 1023,7 20 0 0,2
17.03.2019 18:00:00 7,8 3,6 6,6 10,3 10,0 17 9 28 15 W 1022,8 20 0 0,0
17.03.2019 17:00:00 7,2 5,8 7,1 10,3 10,0 8 4 35 19 W 1022,7 8 0 1,0
17.03.2019 16:00:00 8,0 6,8 7,9 10,2 10,0 14 8 48 26 WNW 1021,9 7 0 0,6
17.03.2019 15:00:00 9,8 6,1 9,6 10,2 10,0 33 18 56 30 NW 1020,6 20 0 0,0
17.03.2019 14:00:00 12,7 6,7 11,9 10,2 10,0 18 10 30 16 NW 1019,0 20 0 0,0
17.03.2019 13:00:00 13,6 6,5 12,0 10,2 10,0 7 4 31 17 N 1018,9 20 16 0,0
17.03.2019 12:00:00 11,0 6,7 9,9 10,2 10,0 2 1 22 12 SE 1020,0 20 0 0,0
17.03.2019 11:00:00 9,5 7,3 9,4 10,3 10,0 10 6 16 8 S 1020,4 19 0 0,0
17.03.2019 10:00:00 8,7 7,6 8,7 10,4 10,0 9 5 16 9 W 1020,7 4,0 0 0,4
17.03.2019 09:00:00 8,6 7,5 8,0 10,4 10,0 5 3 11 6 W 1020,0 6 0 0,0
17.03.2019 08:00:00 8,1 7,2 7,9 10,4 10,0 4 2 6 3 S 1019,1 2,7 0 0,6
17.03.2019 07:00:00 8,3 6,9 7,8 10,5 10,0 4 2 14 8 NE 1018,3 3,2 0 0,0
17.03.2019 06:00:00 8,1 5,7 1,2 10,6 10,0 7 4 21 11 NNW 1017,5 17 0 0,0
17.03.2019 05:00:00 6,2 3,2 0,5 10,6 10,0 6 3 11 6 WNW 1016,4 20 0 0,0
17.03.2019 04:00:00 7,0 1,5 2,3 10,6 10,0 3 2 15 8 SW 1015,5 20 0 0,0
17.03.2019 03:00:00 8,2 -1,1 4,2 10,7 10,0 8 4 31 17 N 1015,2 20 0 0,0
17.03.2019 02:00:00 12,3 -2,0 7,5 10,8 10,0 16 8 36 19 S 1013,5 20 0 0,0
17.03.2019 01:00:00 11,8 -1,7 5,6 10,8 10,0 22 12 30 16 SSE 1014,1 20 0 0,0
17.03.2019 00:00:00 11,4 -1,1 3,1 10,8 10,0 14 8 28 15 SE 1015,0 20 0 0,0
16.03.2019 23:00:00 8,6 0,6 2,5 10,8 10,0 4 2 15 8 SE 1016,3 20 0 0,0
16.03.2019 22:00:00 9,5 1,9 2,5 10,8 9,9 2 1 6 3 SSE 1016,7 20 0 0,0
16.03.2019 21:00:00 11,4 2,7 5,2 10,7 10,0 5 3 13 7 S 1016,1 20 0 0,0
16.03.2019 20:00:00 12,8 3,7 7,2 10,6 10,0 7 4 11 6 SSE 1015,3 20 0 0,0
16.03.2019 19:00:00 16,1 4,5 11,9 10,5 10,0 5 3 8 4 SE 1014,9 20 41 0,0
16.03.2019 18:00:00 22,2 0,7 25,8 10,4 9,9 4 2 6 3 NE 1014,4 20 60 0,0
16.03.2019 17:00:00 23,0 0,7 29,7 10,2 9,9 4 2 13 7 NE 1014,9 20 60 0,0
16.03.2019 16:00:00 23,1 0,8 28,4 10,1 10,0 4 2 15 8 NNE 1015,7 20 60 0,0
16.03.2019 15:00:00 22,9 0,7 28,1 9,9 9,9 8 4 16 9 N 1016,4 20 60 0,0
16.03.2019 14:00:00 22,7 1,6 29,2 9,9 9,9 8 4 16 8 N 1017,2 20 60 0,0
16.03.2019 13:00:00 20,3 1,2 28,9 9,8 9,9 5 3 9 5 NE 1018,7 20 60 0,0
16.03.2019 12:00:00 18,4 3,8 24,1 9,9 9,9 0 0 7 4 N 1019,8 20 60 0,0
16.03.2019 11:00:00 14,4 3,8 20,5 9,9 9,9 3 2 8 4 WNW 1021,2 20 60 0,0
16.03.2019 10:00:00 11,9 3,6 12,4 9,9 9,9 4 2 14 8 SE 1022,4 20 60 0,0
16.03.2019 09:00:00 8,1 2,1 5,9 10,0 10,0 11 6 26 14 SSE 1023,7 20 60 0,0
16.03.2019 08:00:00 5,0 1,7 2,6 10,0 9,9 10 5 24 13 SE 1024,8 20 14 0,0
16.03.2019 07:00:00 4,2 1,6 2,8 10,1 9,9 15 8 28 15 SSE 1025,6 20 0 0,0
16.03.2019 06:00:00 5,1 2,3 3,7 10,1 9,9 15 8 22 12 SE 1025,5 20 0 0,0
16.03.2019 05:00:00 5,9 2,9 2,2 10,1 9,9 11 6 19 11 SE 1026,0 20 0 0,0
16.03.2019 04:00:00 6,1 3,3 2,9 10,1 9,9 8 4 14 8 SSE 1026,2 20 0 0,0
16.03.2019 03:00:00 8,1 4,7 7,0 10,1 9,9 5 3 9 5 SSE 1026,6 20 0 0,0
16.03.2019 02:00:00 8,5 5,4 7,8 10,1 9,9 2 1 4 2 WSW 1027,4 20 0 0,0
16.03.2019 01:00:00 8,8 5,2 7,8 10,1 9,9 2 1 4 2 WNW 1027,9 20 0 0,0
16.03.2019 00:00:00 9,0 5,2 7,9 10,1 9,9 3 2 6 3 W 1028,6 20 0 0,0
15.03.2019 23:00:00 9,0 4,8 7,7 10,1 9,9 0 0 4 2 N 1028,8 20 0 0,0
15.03.2019 22:00:00 9,5 5,1 8,5 10,1 9,9 3 2 13 7 NNW 1029,0 20 0 0,0
15.03.2019 21:00:00 9,8 5,2 9,0 10,0 9,9 7 4 10 5 NNW 1028,9 20 0 0,0
15.03.2019 20:00:00 10,2 5,2 9,5 10,0 9,9 8 4 19 10 NNW 1028,9 20 0 0,0
15.03.2019 19:00:00 10,8 5,3 10,3 9,9 10,0 9 5 19 11 NW 1028,4 20 0 0,0
15.03.2019 18:00:00 11,4 5,5 11,6 9,8 9,9 11 6 24 13 NNW 1027,7 20 0 0,0
15.03.2019 17:00:00 11,8 5,6 12,5 9,7 9,9 13 7 27 15 NW 1027,5 20 0 0,0
15.03.2019 16:00:00 12,1 5,5 13,8 9,6 9,9 17 9 28 15 NW 1027,6 20 0 0,0
15.03.2019 15:00:00 12,2 5,6 14,8 9,5 9,9 18 10 32 17 NNW 1027,6 20 2 0,0
15.03.2019 14:00:00 12,5 5,4 15,4 9,5 10,0 20 11 34 18 NW 1027,7 20 46 0,0
15.03.2019 13:00:00 12,7 5,1 16,4 9,4 9,9 19 11 41 22 NW 1028,3 20 60 0,0
15.03.2019 12:00:00 11,9 5,1 15,0 9,4 9,9 23 12 39 21 NNW 1028,9 20 48 0,0
15.03.2019 11:00:00 11,6 4,1 12,5 9,5 9,9 24 13 37 20 WNW 1029,3 20 49 0,0
15.03.2019 10:00:00 10,6 3,8 11,8 9,5 9,9 16 9 26 14 WNW 1029,6 20 51 0,0
15.03.2019 09:00:00 9,3 3,7 6,9 9,5 9,9 17 9 29 15 W 1030,0 20 8 0,0
15.03.2019 08:00:00 6,5 2,8 5,7 9,6 9,9 3 2 8 4 SE 1030,5 20 0 0,0
15.03.2019 07:00:00 6,7 2,2 2,0 9,7 9,9 2 1 17 9 ESE 1030,4 20 0 0,0
15.03.2019 06:00:00 4,1 1,1 1,3 9,7 10,0 6 3 17 9 SE 1030,8 20 0 0,0
15.03.2019 05:00:00 3,4 0,6 0,9 9,7 9,9 7 4 15 8 S 1030,9 20 0 0,0
15.03.2019 04:00:00 4,6 1,6 1,6 9,7 9,9 9 5 14 8 SSE 1030,8 20 0 0,0
15.03.2019 03:00:00 6,3 1,6 2,9 9,8 9,9 7 4 19 11 WNW 1030,7 20 0 0,0
15.03.2019 02:00:00 7,5 1,6 4,6 9,8 9,9 9 5 24 13 WNW 1030,7 20 0 0,0
15.03.2019 01:00:00 8,8 1,5 7,2 9,8 9,9 13 7 31 17 WNW 1030,4 20 0 0,0
15.03.2019 00:00:00 8,2 1,6 6,9 9,8 9,9 16 9 34 18 W 1030,4 20 0 0,0
14.03.2019 23:00:00 8,8 1,7 6,9 9,8 9,9 11 6 32 17 W 1030,4 20 0 0,0
14.03.2019 22:00:00 8,3 1,7 6,6 9,8 9,9 21 12 39 21 WNW 1030,4 20 0 0,0
14.03.2019 21:00:00 8,1 2,5 6,5 9,8 9,9 20 11 36 19 WNW 1030,1 20 0 0,0
14.03.2019 20:00:00 8,8 2,4 6,6 9,8 9,9 20 11 35 19 WNW 1029,7 20 0 0,0
14.03.2019 19:00:00 9,3 2,2 8,0 9,8 9,9 26 14 51 28 WNW 1029,1 20 1 0,0
14.03.2019 18:00:00 9,6 3,1 9,5 9,7 9,9 23 12 48 26 WNW 1028,8 20 0 0,0
14.03.2019 17:00:00 11,0 2,8 11,3 9,7 9,9 29 15 55 30 WNW 1027,7 20 12 0,0
14.03.2019 16:00:00 11,3 3,3 11,8 9,6 9,9 22 12 51 28 WNW 1027,4 20 21 0,0
14.03.2019 15:00:00 11,1 2,9 12,1 9,6 9,9 26 14 49 26 WNW 1028,0 20 14 0,0
14.03.2019 14:00:00 10,1 3,8 11,4 9,6 9,9 27 15 43 23 WNW 1028,6 20 0 0,0
14.03.2019 13:00:00 9,9 4,3 11,1 9,6 9,9 22 12 40 22 NW 1029,7 20 14 0,0
14.03.2019 12:00:00 10,5 4,0 12,5 9,6 9,9 26 14 48 26 WNW 1029,5 20 44 0,0
14.03.2019 11:00:00 9,2 5,4 7,4 9,6 9,9 19 10 40 22 WNW 1030,4 20 31 0,0
14.03.2019 10:00:00 8,2 4,0 8,1 9,6 9,9 14 8 34 18 NW 1030,9 19 0 0,0
14.03.2019 09:00:00 7,6 2,7 7,1 9,7 9,9 16 9 29 16 WNW 1031,1 20 0 0,0
14.03.2019 08:00:00 7,1 2,4 5,2 9,7 9,9 13 7 27 15 WNW 1030,6 20 1 0,0
14.03.2019 07:00:00 6,6 2,1 5,0 9,7 9,9 8 4 22 12 WNW 1030,6 20 0 0,0
14.03.2019 06:00:00 6,5 2,0 4,9 9,8 9,9 10 6 29 16 W 1030,7 20 0 0,0
14.03.2019 05:00:00 6,4 2,5 4,6 9,8 9,9 13 7 29 16 W 1030,7 18 0 0,0
14.03.2019 04:00:00 5,4 2,9 4,4 9,8 9,9 4 2 16 9 WNW 1030,8 13 0 0,0
14.03.2019 03:00:00 5,4 3,2 4,6 9,9 9,9 12 7 22 12 WNW 1031,6 8 0 0,6
14.03.2019 02:00:00 6,5 1,8 4,4 9,9 9,9 10 5 26 14 WNW 1031,6 20 0 0,0
14.03.2019 01:00:00 6,1 2,2 4,4 9,9 9,9 16 9 29 16 W 1032,0 20 0 0,4
14.03.2019 00:00:00 6,7 1,8 4,8 10,0 9,9 16 8 41 22 W 1031,8 20 0 0,2
13.03.2019 23:00:00 6,9 1,6 5,0 10,0 9,9 18 10 50 27 W 1031,3 20 0 0,0
13.03.2019 22:00:00 7,3 1,1 6,3 10,0 9,9 19 11 49 27 W 1030,6 20 0 0,0
13.03.2019 21:00:00 7,1 1,8 5,7 10,0 9,9 20 11 45 24 W 1030,3 20 0 0,0
13.03.2019 20:00:00 6,7 1,6 4,8 10,0 9,9 18 10 46 25 W 1029,9 20 0 0,0
13.03.2019 19:00:00 6,7 2,2 4,9 10,0 9,9 22 12 42 23 W 1029,0 20 0 0,8
13.03.2019 18:00:00 7,4 1,2 7,0 10,0 9,9 22 12 52 28 W 1028,1 20 12 0,0
13.03.2019 17:00:00 8,0 2,0 5,5 10,0 9,9 22 12 51 28 W 1027,3 20 17 0,4
13.03.2019 16:00:00 7,2 2,1 5,6 9,9 9,9 32 17 55 30 WNW 1027,4 14 5 0,0
13.03.2019 15:00:00 9,5 0,6 9,5 9,9 9,9 29 15 47 25 WNW 1025,6 20 18 0,0
13.03.2019 14:00:00 8,7 3,9 6,2 9,9 9,9 15 8 50 27 WNW 1026,1 20 16 0,4
13.03.2019 13:00:00 9,6 1,2 7,2 9,9 9,9 26 14 50 27 W 1026,5 20 22 0,0
13.03.2019 12:00:00 8,4 2,0 6,5 10,0 9,9 25 14 42 23 WNW 1027,1 16 25 0,0
13.03.2019 11:00:00 6,8 2,3 5,8 10,0 9,9 19 10 32 18 W 1028,1 18 0 0,0
13.03.2019 10:00:00 7,6 1,0 8,1 10,0 9,9 14 8 29 16 WNW 1027,4 20 26 0,0
13.03.2019 09:00:00 7,2 1,9 4,2 10,1 9,8 10 6 21 12 W 1027,2 20 30 0,0

tt = temperature
td = dewpoint
tt 5cm = temperature 5cm
tt -20cm = temperature -20cm
tt -100cm = temperature -100cm
ff = wind speed
fx = gusts
dd = wind direction
ppp = reduced air pressure
vv = visibility
sd = sunshine duration
rr = precipitation

Next stations